Time,TemperatureF,DewpointF,PressureIn,WindDirection,WindDirectionDegrees,WindSpeedMPH,WindSpeedGustMPH,Humidity,HourlyPrecipIn,Conditions,Clouds,dailyrainin,SoftwareType,DateUTC
2013-02-15 00:03:00,47.5,43.5,29.65,West,270,0.0,1.6,86,0.00,,---,0.00,VWS V13.01,2013-02-14 22:03:00,
2013-02-15 00:08:00,47.5,43.5,29.66,South,180,0.0,1.3,86,0.00,,---,0.00,VWS V13.01,2013-02-14 22:08:00,
2013-02-15 00:13:00,47.5,43.5,29.65,South,180,1.3,1.3,86,0.00,,---,0.00,VWS V13.01,2013-02-14 22:13:00,
2013-02-15 00:18:00,47.5,43.5,29.65,South,180,3.8,3.8,86,0.00,,---,0.00,VWS V13.01,2013-02-14 22:18:00,
2013-02-15 00:23:00,47.5,43.5,29.65,SSW,202,0.0,2.5,86,0.00,,---,0.00,VWS V13.01,2013-02-14 22:23:00,
2013-02-15 00:28:00,47.5,43.5,29.65,South,180,0.0,3.1,86,0.00,,---,0.00,VWS V13.01,2013-02-14 22:28:00,
2013-02-15 00:33:00,47.5,43.5,29.65,South,180,0.0,2.5,86,0.00,,---,0.00,VWS V13.01,2013-02-14 22:33:00,
2013-02-15 00:38:00,47.5,43.5,29.65,SSW,202,0.0,2.7,86,0.00,,---,0.00,VWS V13.01,2013-02-14 22:38:00,
2013-02-15 00:44:00,47.5,43.5,29.65,WNW,292,0.0,2.7,86,0.00,,---,0.00,VWS V13.01,2013-02-14 22:44:00,
2013-02-15 00:48:00,47.5,43.5,29.66,South,180,0.0,1.6,86,0.00,,---,0.00,VWS V13.01,2013-02-14 22:48:00,
2013-02-15 00:54:00,47.5,43.5,29.65,WSW,247,0.7,1.8,86,0.00,,---,0.00,VWS V13.01,2013-02-14 22:54:00,
2013-02-15 00:59:00,47.5,43.5,29.66,South,180,1.6,1.6,86,0.00,,---,0.00,VWS V13.01,2013-02-14 22:59:00,
2013-02-15 01:04:00,47.5,43.5,29.66,South,180,0.0,2.2,86,0.00,,---,0.00,VWS V13.01,2013-02-14 23:04:00,
2013-02-15 01:09:00,47.5,43.5,29.65,SW,225,0.9,0.9,86,0.00,,---,0.00,VWS V13.01,2013-02-14 23:09:00,
2013-02-15 01:14:00,47.5,43.5,29.65,South,180,0.0,2.5,86,0.00,,---,0.00,VWS V13.01,2013-02-14 23:14:00,
2013-02-15 01:19:00,47.5,43.5,29.65,SSW,202,0.0,2.2,86,0.00,,---,0.00,VWS V13.01,2013-02-14 23:19:00,
2013-02-15 01:24:00,47.5,43.5,29.65,SSW,202,2.0,2.0,86,0.00,,---,0.00,VWS V13.01,2013-02-14 23:24:00,
2013-02-15 01:29:00,47.5,43.5,29.65,SW,225,0.0,1.6,86,0.00,,---,0.02,VWS V13.01,2013-02-14 23:29:00,
2013-02-15 01:34:00,47.5,43.5,29.65,WNW,292,0.0,1.6,86,0.00,,---,0.02,VWS V13.01,2013-02-14 23:34:00,
2013-02-15 01:39:00,47.5,43.5,29.65,West,270,0.0,1.6,86,0.00,,---,0.02,VWS V13.01,2013-02-14 23:39:00,
2013-02-15 01:44:00,47.5,43.5,29.65,SSE,157,0.0,1.6,86,0.00,,---,0.02,VWS V13.01,2013-02-14 23:44:00,
2013-02-15 01:49:00,47.5,43.5,29.65,SSE,157,0.0,1.6,86,0.00,,---,0.02,VWS V13.01,2013-02-14 23:49:00,
2013-02-15 01:54:00,47.5,43.5,29.65,South,180,0.0,1.6,86,0.00,,---,0.02,VWS V13.01,2013-02-14 23:54:00,
2013-02-15 01:59:00,47.5,43.5,29.66,SE,135,0.0,1.6,86,0.00,,---,0.02,VWS V13.01,2013-02-14 23:59:00,
2013-02-15 02:04:00,47.5,43.5,29.66,SE,135,0.0,1.6,86,0.00,,---,0.04,VWS V13.01,2013-02-15 00:04:00,
2013-02-15 02:09:00,47.5,43.5,29.66,SE,135,0.0,2.2,86,0.00,,---,0.04,VWS V13.01,2013-02-15 00:09:00,
2013-02-15 02:14:00,47.5,43.5,29.66,SSE,157,0.0,2.2,86,0.00,,---,0.04,VWS V13.01,2013-02-15 00:14:00,
2013-02-15 02:19:00,47.5,43.5,29.66,NE,45,0.0,2.2,86,0.00,,---,0.04,VWS V13.01,2013-02-15 00:19:00,
2013-02-15 02:24:00,47.5,43.5,29.66,North,0,0.0,2.2,86,0.00,,---,0.04,VWS V13.01,2013-02-15 00:24:00,
2013-02-15 02:29:00,47.3,43.3,29.66,ESE,112,0.0,1.6,86,0.00,,---,0.04,VWS V13.01,2013-02-15 00:29:00,
2013-02-15 02:34:00,47.3,43.3,29.66,WNW,292,0.0,1.1,86,0.00,,---,0.04,VWS V13.01,2013-02-15 00:34:00,
2013-02-15 02:39:00,47.1,43.1,29.67,South,180,1.6,1.6,86,0.00,,---,0.06,VWS V13.01,2013-02-15 00:39:00,
2013-02-15 02:44:00,47.1,43.1,29.66,WSW,247,0.0,2.0,86,0.00,,---,0.06,VWS V13.01,2013-02-15 00:44:00,
2013-02-15 02:49:00,47.1,43.1,29.66,SSW,202,0.0,3.6,86,0.00,,---,0.06,VWS V13.01,2013-02-15 00:49:00,
2013-02-15 02:54:00,46.9,42.9,29.67,NW,315,0.0,5.8,86,0.00,,---,0.06,VWS V13.01,2013-02-15 00:54:00,
2013-02-15 02:59:00,46.9,42.9,29.66,West,270,0.0,2.5,86,0.00,,---,0.06,VWS V13.01,2013-02-15 00:59:00,
2013-02-15 03:05:00,46.9,42.9,29.66,West,270,0.0,1.6,86,0.00,,---,0.06,VWS V13.01,2013-02-15 01:05:00,
2013-02-15 03:10:00,46.8,42.8,29.66,WNW,292,0.0,5.6,86,0.00,,---,0.06,VWS V13.01,2013-02-15 01:10:00,
2013-02-15 03:15:00,46.8,42.8,29.66,West,270,0.0,2.0,86,0.00,,---,0.06,VWS V13.01,2013-02-15 01:15:00,
2013-02-15 03:20:00,46.8,42.8,29.67,NNW,337,1.6,1.6,86,0.00,,---,0.06,VWS V13.01,2013-02-15 01:20:00,
2013-02-15 03:25:00,46.6,42.6,29.67,WSW,247,0.0,3.1,86,0.00,,---,0.08,VWS V13.01,2013-02-15 01:25:00,
2013-02-15 03:30:00,46.6,42.6,29.66,West,270,2.2,2.7,86,0.00,,---,0.08,VWS V13.01,2013-02-15 01:30:00,
2013-02-15 03:35:00,46.6,42.6,29.66,WSW,247,0.0,2.5,86,0.00,,---,0.08,VWS V13.01,2013-02-15 01:35:00,
2013-02-15 03:40:00,46.6,42.6,29.66,WNW,292,0.0,2.0,86,0.00,,---,0.10,VWS V13.01,2013-02-15 01:40:00,
2013-02-15 03:45:00,46.6,42.6,29.66,South,180,0.0,0.7,86,0.00,,---,0.10,VWS V13.01,2013-02-15 01:45:00,
2013-02-15 03:50:00,46.6,42.6,29.66,SW,225,0.0,2.2,86,0.00,,---,0.10,VWS V13.01,2013-02-15 01:50:00,
2013-02-15 03:55:00,46.6,42.6,29.66,South,180,0.0,2.9,86,0.00,,---,0.10,VWS V13.01,2013-02-15 01:55:00,
2013-02-15 04:00:00,46.6,42.6,29.66,West,270,0.0,2.2,86,0.00,,---,0.10,VWS V13.01,2013-02-15 02:00:00,
2013-02-15 04:05:00,46.6,42.6,29.67,SW,225,0.0,3.1,86,0.00,,---,0.12,VWS V13.01,2013-02-15 02:05:00,
2013-02-15 04:10:00,46.6,42.6,29.66,SW,225,0.0,1.8,86,0.00,,---,0.12,VWS V13.01,2013-02-15 02:10:00,
2013-02-15 04:15:00,46.6,42.6,29.67,South,180,0.0,1.6,86,0.00,,---,0.12,VWS V13.01,2013-02-15 02:15:00,
2013-02-15 04:20:00,46.6,42.6,29.67,SW,225,0.0,1.8,86,0.00,,---,0.12,VWS V13.01,2013-02-15 02:20:00,
2013-02-15 04:25:00,46.6,42.6,29.67,South,180,0.0,0.9,86,0.00,,---,0.14,VWS V13.01,2013-02-15 02:25:00,
2013-02-15 04:30:00,46.6,42.6,29.67,WSW,247,2.2,2.5,86,0.00,,---,0.14,VWS V13.01,2013-02-15 02:30:00,
2013-02-15 04:35:00,46.6,42.6,29.67,WNW,292,0.0,2.5,86,0.00,,---,0.14,VWS V13.01,2013-02-15 02:35:00,
2013-02-15 04:40:00,46.6,42.6,29.67,SW,225,0.0,1.8,86,0.00,,---,0.14,VWS V13.01,2013-02-15 02:40:00,
2013-02-15 04:45:00,46.6,42.6,29.67,WSW,247,0.0,1.1,86,0.00,,---,0.16,VWS V13.01,2013-02-15 02:45:00,
2013-02-15 04:50:00,46.6,42.6,29.67,South,180,0.0,1.8,86,0.00,,---,0.16,VWS V13.01,2013-02-15 02:50:00,
2013-02-15 04:55:00,46.6,42.6,29.67,WNW,292,0.0,1.1,86,0.00,,---,0.16,VWS V13.01,2013-02-15 02:55:00,
2013-02-15 05:00:00,46.6,42.6,29.67,South,180,3.6,3.6,86,0.00,,---,0.16,VWS V13.01,2013-02-15 03:00:00,
2013-02-15 05:05:00,46.6,42.6,29.66,WSW,247,0.7,6.0,86,0.00,,---,0.16,VWS V13.01,2013-02-15 03:05:00,
2013-02-15 05:10:00,46.4,42.5,29.66,West,270,0.0,1.1,86,0.00,,---,0.16,VWS V13.01,2013-02-15 03:10:00,
2013-02-15 05:15:00,46.2,42.2,29.66,WNW,292,4.5,8.3,86,0.00,,---,0.16,VWS V13.01,2013-02-15 03:15:00,
2013-02-15 05:20:00,46.2,42.2,29.66,NW,315,1.3,10.1,86,0.00,,---,0.16,VWS V13.01,2013-02-15 03:20:00,
2013-02-15 05:25:00,46.2,42.2,29.66,WSW,247,5.6,9.6,86,0.00,,---,0.16,VWS V13.01,2013-02-15 03:25:00,
2013-02-15 05:31:00,46.2,42.2,29.67,WNW,292,4.5,4.5,86,0.00,,---,0.16,VWS V13.01,2013-02-15 03:31:00,
2013-02-15 05:36:00,46.2,42.2,29.67,WNW,292,5.1,10.1,86,0.00,,---,0.16,VWS V13.01,2013-02-15 03:36:00,
2013-02-15 05:41:00,46.2,42.2,29.67,SSE,157,0.0,5.8,86,0.00,,---,0.16,VWS V13.01,2013-02-15 03:41:00,
2013-02-15 05:46:00,46.0,42.0,29.67,South,180,0.0,9.8,86,0.00,,---,0.16,VWS V13.01,2013-02-15 03:46:00,
2013-02-15 05:51:00,46.2,42.2,29.67,NW,315,6.0,6.3,86,0.00,,---,0.16,VWS V13.01,2013-02-15 03:51:00,
2013-02-15 05:56:00,46.0,42.0,29.67,SW,225,0.0,5.4,86,0.00,,---,0.18,VWS V13.01,2013-02-15 03:56:00,
2013-02-15 06:01:00,46.0,42.0,29.67,SSW,202,0.0,1.3,86,0.00,,---,0.18,VWS V13.01,2013-02-15 04:01:00,
2013-02-15 06:06:00,46.0,42.0,29.67,South,180,0.0,2.2,86,0.00,,---,0.18,VWS V13.01,2013-02-15 04:06:00,
2013-02-15 06:11:00,46.2,42.2,29.68,ESE,112,0.0,2.2,86,0.00,,---,0.18,VWS V13.01,2013-02-15 04:11:00,
2013-02-15 06:16:00,46.2,42.2,29.68,SSE,157,0.0,2.2,86,0.00,,---,0.18,VWS V13.01,2013-02-15 04:16:00,
2013-02-15 06:21:00,46.2,42.2,29.67,East,90,0.0,2.2,86,0.00,,---,0.18,VWS V13.01,2013-02-15 04:21:00,
2013-02-15 06:26:00,46.2,42.2,29.68,ESE,112,0.0,2.2,86,0.00,,---,0.18,VWS V13.01,2013-02-15 04:26:00,
2013-02-15 06:31:00,46.2,42.2,29.69,South,180,0.0,2.2,86,0.00,,---,0.18,VWS V13.01,2013-02-15 04:31:00,
2013-02-15 06:36:00,46.2,42.2,29.68,ESE,112,0.0,2.2,86,0.00,,---,0.18,VWS V13.01,2013-02-15 04:36:00,
2013-02-15 06:41:00,46.2,42.2,29.69,ESE,112,0.0,2.2,86,0.00,,---,0.18,VWS V13.01,2013-02-15 04:41:00,
2013-02-15 06:46:00,46.2,42.2,29.69,SE,135,0.0,2.2,86,0.00,,---,0.18,VWS V13.01,2013-02-15 04:46:00,
2013-02-15 06:51:00,46.0,42.0,29.69,SSE,157,0.0,2.2,86,0.00,,---,0.18,VWS V13.01,2013-02-15 04:51:00,
2013-02-15 06:56:00,46.0,42.0,29.70,East,90,0.0,2.2,86,0.00,,---,0.18,VWS V13.01,2013-02-15 04:56:00,
2013-02-15 07:00:00,46.0,42.0,29.70,ESE,112,0.0,2.2,86,0.00,,---,0.18,VWS V13.01,2013-02-15 05:00:00,
2013-02-15 07:01:00,46.0,42.0,29.69,SE,135,0.0,2.2,86,0.00,,---,0.18,VWS V13.01,2013-02-15 05:01:00,
2013-02-15 07:06:00,46.0,42.0,29.70,SE,135,0.0,2.2,86,0.00,,---,0.18,VWS V13.01,2013-02-15 05:06:00,
2013-02-15 07:11:00,46.0,42.0,29.70,South,180,0.0,2.2,86,0.00,,---,0.20,VWS V13.01,2013-02-15 05:11:00,
2013-02-15 07:16:00,46.0,42.0,29.70,ENE,67,0.0,2.2,86,0.00,,---,0.20,VWS V13.01,2013-02-15 05:16:00,
2013-02-15 07:21:00,46.0,42.0,29.70,ESE,112,0.0,2.2,86,0.00,,---,0.20,VWS V13.01,2013-02-15 05:21:00,
2013-02-15 07:26:00,46.0,42.0,29.70,SE,135,0.0,2.2,86,0.00,,---,0.20,VWS V13.01,2013-02-15 05:26:00,
2013-02-15 07:31:00,46.0,42.0,29.70,South,180,0.0,2.2,86,0.00,,---,0.20,VWS V13.01,2013-02-15 05:31:00,
2013-02-15 07:36:00,46.0,42.0,29.70,SSE,157,0.0,2.2,86,0.00,,---,0.20,VWS V13.01,2013-02-15 05:36:00,
2013-02-15 07:41:00,46.0,42.0,29.71,SSE,157,0.0,2.2,86,0.00,,---,0.20,VWS V13.01,2013-02-15 05:41:00,
2013-02-15 07:46:00,46.0,42.0,29.71,South,180,0.0,2.2,86,0.00,,---,0.20,VWS V13.01,2013-02-15 05:46:00,
2013-02-15 07:51:00,46.0,42.0,29.71,ENE,67,0.0,2.2,86,0.00,,---,0.20,VWS V13.01,2013-02-15 05:51:00,
2013-02-15 07:56:00,46.2,42.2,29.71,ESE,112,0.0,2.2,86,0.00,,---,0.20,VWS V13.01,2013-02-15 05:56:00,
2013-02-15 08:01:00,46.2,42.2,29.72,ESE,112,0.0,2.2,86,0.00,,---,0.20,VWS V13.01,2013-02-15 06:01:00,
2013-02-15 08:06:00,46.2,42.2,29.72,ESE,112,0.0,2.2,86,0.00,,---,0.20,VWS V13.01,2013-02-15 06:06:00,
2013-02-15 08:11:00,46.4,42.8,29.72,ESE,112,0.0,1.6,87,0.00,,---,0.20,VWS V13.01,2013-02-15 06:11:00,
2013-02-15 08:16:00,46.6,42.9,29.73,ESE,112,0.0,1.6,87,0.00,,---,0.20,VWS V13.01,2013-02-15 06:16:00,
2013-02-15 08:21:00,46.6,42.9,29.73,ENE,67,0.0,1.6,87,0.00,,---,0.20,VWS V13.01,2013-02-15 06:21:00,
2013-02-15 08:26:00,46.6,42.9,29.73,North,0,0.0,1.6,87,0.00,,---,0.20,VWS V13.01,2013-02-15 06:26:00,
2013-02-15 08:31:00,46.6,42.9,29.74,East,90,0.0,1.6,87,0.00,,---,0.20,VWS V13.01,2013-02-15 06:31:00,
2013-02-15 08:36:00,46.6,42.9,29.74,ENE,67,0.0,1.6,87,0.00,,---,0.20,VWS V13.01,2013-02-15 06:36:00,
2013-02-15 08:41:00,46.8,43.1,29.74,NE,45,0.0,1.6,87,0.00,,---,0.20,VWS V13.01,2013-02-15 06:41:00,
2013-02-15 08:46:00,46.8,43.1,29.74,ESE,112,0.0,1.6,87,0.00,,---,0.20,VWS V13.01,2013-02-15 06:46:00,
2013-02-15 08:51:00,46.9,43.2,29.75,ENE,67,0.7,1.1,87,0.00,,---,0.20,VWS V13.01,2013-02-15 06:51:00,
2013-02-15 08:56:00,46.9,43.2,29.75,South,180,0.0,1.6,87,0.00,,---,0.20,VWS V13.01,2013-02-15 06:56:00,
2013-02-15 09:01:00,47.1,43.4,29.75,East,90,0.0,1.6,87,0.00,,---,0.20,VWS V13.01,2013-02-15 07:01:00,
2013-02-15 09:06:00,47.1,43.4,29.75,East,90,0.0,1.6,87,0.00,,---,0.20,VWS V13.01,2013-02-15 07:06:00,
2013-02-15 09:11:00,47.1,43.4,29.75,ESE,112,0.0,1.6,87,0.00,,---,0.20,VWS V13.01,2013-02-15 07:11:00,
2013-02-15 09:16:00,47.3,43.6,29.75,South,180,0.0,1.6,87,0.00,,---,0.20,VWS V13.01,2013-02-15 07:16:00,
2013-02-15 09:21:00,47.5,43.8,29.76,SE,135,0.0,1.6,87,0.00,,---,0.20,VWS V13.01,2013-02-15 07:21:00,
2013-02-15 09:26:00,47.5,44.1,29.77,SSE,157,0.0,1.6,88,0.00,,---,0.22,VWS V13.01,2013-02-15 07:26:00,
2013-02-15 09:31:00,47.5,44.1,29.77,ENE,67,1.3,1.3,88,0.00,,---,0.22,VWS V13.01,2013-02-15 07:31:00,
2013-02-15 09:36:00,47.7,44.3,29.77,ENE,67,0.0,1.3,88,0.00,,---,0.22,VWS V13.01,2013-02-15 07:36:00,
2013-02-15 09:41:00,47.7,44.3,29.78,ENE,67,0.0,3.8,88,0.00,,---,0.24,VWS V13.01,2013-02-15 07:41:00,
2013-02-15 09:47:00,47.8,44.4,29.77,East,90,0.0,1.6,88,0.00,,---,0.24,VWS V13.01,2013-02-15 07:47:00,
2013-02-15 09:52:00,47.8,44.4,29.78,WNW,292,0.0,2.2,88,0.00,,---,0.26,VWS V13.01,2013-02-15 07:52:00,
2013-02-15 09:57:00,48.0,44.6,29.77,East,90,0.0,2.0,88,0.00,,---,0.26,VWS V13.01,2013-02-15 07:57:00,
2013-02-15 10:02:00,48.0,44.6,29.78,East,90,0.0,2.5,88,0.00,,---,0.26,VWS V13.01,2013-02-15 08:02:00,
2013-02-15 10:07:00,48.0,44.6,29.78,NNW,337,1.8,2.5,88,0.00,,---,0.26,VWS V13.01,2013-02-15 08:07:00,
2013-02-15 10:12:00,48.0,44.6,29.78,West,270,0.7,0.7,88,0.00,,---,0.26,VWS V13.01,2013-02-15 08:12:00,
2013-02-15 10:17:00,48.0,44.6,29.78,NW,315,2.2,2.2,88,0.00,,---,0.26,VWS V13.01,2013-02-15 08:17:00,
2013-02-15 10:22:00,48.0,44.6,29.79,SSW,202,0.0,2.5,88,0.00,,---,0.26,VWS V13.01,2013-02-15 08:22:00,
2013-02-15 10:27:00,48.2,44.8,29.79,NE,45,0.0,2.5,88,0.00,,---,0.26,VWS V13.01,2013-02-15 08:27:00,
2013-02-15 10:32:00,48.4,45.0,29.79,SE,135,0.0,2.5,88,0.00,,---,0.26,VWS V13.01,2013-02-15 08:32:00,
2013-02-15 10:37:00,48.4,45.0,29.80,NW,315,0.0,2.2,88,0.00,,---,0.26,VWS V13.01,2013-02-15 08:37:00,
2013-02-15 10:42:00,48.4,45.0,29.80,NNW,337,1.3,2.7,88,0.00,,---,0.26,VWS V13.01,2013-02-15 08:42:00,
2013-02-15 10:47:00,48.4,45.0,29.80,NNE,22,0.0,2.9,88,0.00,,---,0.26,VWS V13.01,2013-02-15 08:47:00,
2013-02-15 10:52:00,48.6,45.2,29.80,NNW,337,1.3,1.3,88,0.00,,---,0.26,VWS V13.01,2013-02-15 08:52:00,
2013-02-15 10:57:00,48.7,45.3,29.81,NNW,337,0.0,11.2,88,0.00,,---,0.26,VWS V13.01,2013-02-15 08:57:00,
2013-02-15 11:02:00,48.7,45.3,29.81,NW,315,0.0,1.3,88,0.00,,---,0.26,VWS V13.01,2013-02-15 09:02:00,
2013-02-15 11:07:00,48.9,45.5,29.81,North,0,7.4,7.4,88,0.00,,---,0.26,VWS V13.01,2013-02-15 09:07:00,
2013-02-15 11:12:00,49.1,45.7,29.81,NNW,337,9.2,12.1,88,0.00,,---,0.26,VWS V13.01,2013-02-15 09:12:00,
2013-02-15 11:17:00,49.3,45.6,29.82,NW,315,6.0,6.7,87,0.00,,---,0.26,VWS V13.01,2013-02-15 09:17:00,
2013-02-15 11:22:00,49.6,45.9,29.82,WNW,292,3.4,7.8,87,0.00,,---,0.26,VWS V13.01,2013-02-15 09:22:00,
2013-02-15 11:27:00,49.6,45.9,29.82,NNW,337,2.5,10.5,87,0.00,,---,0.26,VWS V13.01,2013-02-15 09:27:00,
2013-02-15 11:32:00,49.8,46.1,29.83,North,0,8.1,11.2,87,0.00,,---,0.26,VWS V13.01,2013-02-15 09:32:00,
2013-02-15 11:37:00,49.8,46.1,29.83,North,0,7.4,9.4,87,0.00,,---,0.26,VWS V13.01,2013-02-15 09:37:00,
2013-02-15 11:43:00,50.0,46.0,29.83,WNW,292,2.9,8.9,86,0.00,,---,0.26,VWS V13.01,2013-02-15 09:43:00,
2013-02-15 11:48:00,50.2,45.9,29.83,North,0,3.6,16.8,85,0.00,,---,0.26,VWS V13.01,2013-02-15 09:48:00,
2013-02-15 11:53:00,50.2,45.9,29.83,East,90,3.8,8.5,85,0.00,,---,0.26,VWS V13.01,2013-02-15 09:53:00,
2013-02-15 11:58:00,50.4,46.1,29.83,North,0,13.6,13.6,85,0.00,,---,0.26,VWS V13.01,2013-02-15 09:58:00,
2013-02-15 12:03:00,50.4,45.8,29.83,NNW,337,9.4,12.8,84,0.00,,---,0.26,VWS V13.01,2013-02-15 10:03:00,
2013-02-15 12:08:00,50.5,45.8,29.83,North,0,3.8,3.8,84,0.00,,---,0.26,VWS V13.01,2013-02-15 10:08:00,
2013-02-15 12:13:00,50.5,45.5,29.83,NNW,337,5.4,7.2,83,0.00,,---,0.26,VWS V13.01,2013-02-15 10:13:00,
2013-02-15 12:18:00,50.7,45.4,29.83,SE,135,4.9,4.9,82,0.00,,---,0.26,VWS V13.01,2013-02-15 10:18:00,
2013-02-15 12:23:00,50.9,45.6,29.83,NE,45,5.1,15.4,82,0.00,,---,0.26,VWS V13.01,2013-02-15 10:23:00,
2013-02-15 12:28:00,51.1,45.5,29.84,NNW,337,11.0,11.0,81,0.00,,---,0.26,VWS V13.01,2013-02-15 10:28:00,
2013-02-15 12:33:00,51.3,45.3,29.83,NW,315,9.2,19.5,80,0.00,,---,0.26,VWS V13.01,2013-02-15 10:33:00,
2013-02-15 12:38:00,51.4,45.5,29.83,NE,45,4.0,8.5,80,0.00,,---,0.26,VWS V13.01,2013-02-15 10:38:00,
2013-02-15 12:43:00,51.6,45.6,29.83,NNW,337,8.1,13.0,80,0.00,,---,0.26,VWS V13.01,2013-02-15 10:43:00,
2013-02-15 12:48:00,51.8,45.5,29.84,NNW,337,13.0,13.0,79,0.00,,---,0.26,VWS V13.01,2013-02-15 10:48:00,
2013-02-15 12:53:00,51.6,45.0,29.84,North,0,8.3,14.3,78,0.00,,---,0.26,VWS V13.01,2013-02-15 10:53:00,
2013-02-15 12:58:00,51.8,45.2,29.84,NNW,337,0.0,13.9,78,0.00,,---,0.26,VWS V13.01,2013-02-15 10:58:00,
2013-02-15 13:03:00,51.8,45.2,29.84,North,0,9.2,11.9,78,0.00,,---,0.26,VWS V13.01,2013-02-15 11:03:00,
2013-02-15 13:08:00,52.0,45.4,29.85,North,0,3.1,3.8,78,0.00,,---,0.26,VWS V13.01,2013-02-15 11:08:00,
2013-02-15 13:13:00,51.8,44.8,29.85,NE,45,2.5,11.2,77,0.00,,---,0.26,VWS V13.01,2013-02-15 11:13:00,
2013-02-15 13:18:00,51.6,44.6,29.84,NNW,337,10.1,10.1,77,0.00,,---,0.26,VWS V13.01,2013-02-15 11:18:00,
2013-02-15 13:23:00,51.6,44.6,29.85,North,0,17.0,17.0,77,0.00,,---,0.26,VWS V13.01,2013-02-15 11:23:00,
2013-02-15 13:28:00,51.6,44.6,29.85,North,0,11.4,11.4,77,0.00,,---,0.26,VWS V13.01,2013-02-15 11:28:00,
2013-02-15 13:33:00,51.8,44.5,29.85,NW,315,2.2,17.0,76,0.00,,---,0.26,VWS V13.01,2013-02-15 11:33:00,
2013-02-15 13:38:00,51.8,44.1,29.85,NW,315,5.8,15.9,75,0.00,,---,0.26,VWS V13.01,2013-02-15 11:38:00,
2013-02-15 13:43:00,52.0,44.3,29.85,North,0,5.1,12.5,75,0.00,,---,0.26,VWS V13.01,2013-02-15 11:43:00,
2013-02-15 13:48:00,52.0,44.3,29.85,North,0,14.1,14.1,75,0.00,,---,0.26,VWS V13.01,2013-02-15 11:48:00,
2013-02-15 13:54:00,51.8,44.1,29.84,North,0,9.8,15.9,75,0.00,,---,0.26,VWS V13.01,2013-02-15 11:54:00,
2013-02-15 13:59:00,52.0,44.3,29.85,NNE,22,15.0,16.6,75,0.00,,---,0.26,VWS V13.01,2013-02-15 11:59:00,
2013-02-15 14:04:00,52.0,44.3,29.85,NW,315,15.9,15.9,75,0.00,,---,0.26,VWS V13.01,2013-02-15 12:04:00,
2013-02-15 14:09:00,52.0,44.3,29.85,NNE,22,12.3,16.6,75,0.00,,---,0.26,VWS V13.01,2013-02-15 12:09:00,
2013-02-15 14:14:00,51.8,43.8,29.86,NNE,22,12.1,12.1,74,0.00,,---,0.26,VWS V13.01,2013-02-15 12:14:00,
2013-02-15 14:19:00,51.8,43.8,29.86,North,0,5.6,13.6,74,0.00,,---,0.26,VWS V13.01,2013-02-15 12:19:00,
2013-02-15 14:24:00,51.6,43.6,29.86,North,0,10.5,10.5,74,0.00,,---,0.26,VWS V13.01,2013-02-15 12:24:00,
2013-02-15 14:29:00,51.6,43.6,29.86,NW,315,8.3,12.1,74,0.00,,---,0.26,VWS V13.01,2013-02-15 12:29:00,
2013-02-15 14:34:00,51.4,43.0,29.87,North,0,5.6,9.2,73,0.00,,---,0.26,VWS V13.01,2013-02-15 12:34:00,
2013-02-15 14:39:00,51.4,43.4,29.87,North,0,3.8,11.6,74,0.00,,---,0.26,VWS V13.01,2013-02-15 12:39:00,
2013-02-15 14:44:00,51.4,43.4,29.87,NW,315,7.8,7.8,74,0.00,,---,0.26,VWS V13.01,2013-02-15 12:44:00,
2013-02-15 14:49:00,51.4,43.4,29.87,NNE,22,6.0,8.5,74,0.00,,---,0.26,VWS V13.01,2013-02-15 12:49:00,
2013-02-15 14:54:00,51.3,43.3,29.88,North,0,6.7,9.8,74,0.00,,---,0.26,VWS V13.01,2013-02-15 12:54:00,
2013-02-15 14:59:00,51.1,43.5,29.88,North,0,2.7,9.6,75,0.00,,---,0.26,VWS V13.01,2013-02-15 12:59:00,
2013-02-15 15:04:00,51.1,43.5,29.88,NNE,22,6.3,9.6,75,0.00,,---,0.26,VWS V13.01,2013-02-15 13:04:00,
2013-02-15 15:09:00,50.9,42.9,29.88,NNW,337,6.9,11.0,74,0.00,,---,0.26,VWS V13.01,2013-02-15 13:09:00,
2013-02-15 15:14:00,50.7,42.7,29.88,NNE,22,9.8,10.7,74,0.00,,---,0.26,VWS V13.01,2013-02-15 13:14:00,
2013-02-15 15:19:00,50.7,42.7,29.89,North,0,2.9,4.5,74,0.00,,---,0.26,VWS V13.01,2013-02-15 13:19:00,
2013-02-15 15:24:00,50.5,42.9,29.89,NW,315,5.4,8.9,75,0.00,,---,0.26,VWS V13.01,2013-02-15 13:24:00,
2013-02-15 15:29:00,50.4,42.8,29.89,North,0,6.5,9.4,75,0.00,,---,0.26,VWS V13.01,2013-02-15 13:29:00,
2013-02-15 15:34:00,50.2,42.9,29.89,NNW,337,2.2,6.5,76,0.00,,---,0.26,VWS V13.01,2013-02-15 13:34:00,
2013-02-15 15:39:00,50.0,42.7,29.89,NE,45,1.6,3.1,76,0.00,,---,0.26,VWS V13.01,2013-02-15 13:39:00,
2013-02-15 15:44:00,49.8,42.9,29.89,NNW,337,6.5,8.3,77,0.00,,---,0.26,VWS V13.01,2013-02-15 13:44:00,
2013-02-15 15:49:00,49.8,42.9,29.90,North,0,3.1,7.8,77,0.00,,---,0.26,VWS V13.01,2013-02-15 13:49:00,
2013-02-15 15:54:00,49.6,43.0,29.90,NW,315,2.0,7.4,78,0.00,,---,0.26,VWS V13.01,2013-02-15 13:54:00,
2013-02-15 15:59:00,49.6,43.0,29.90,NNW,337,2.2,5.8,78,0.00,,---,0.26,VWS V13.01,2013-02-15 13:59:00,
2013-02-15 16:04:00,49.6,43.0,29.90,NNE,22,3.8,3.8,78,0.00,,---,0.26,VWS V13.01,2013-02-15 14:04:00,
2013-02-15 16:10:00,49.6,43.4,29.90,NE,45,2.7,5.1,79,0.00,,---,0.26,VWS V13.01,2013-02-15 14:10:00,
2013-02-15 16:15:00,49.5,43.3,29.90,NNW,337,2.0,5.6,79,0.00,,---,0.26,VWS V13.01,2013-02-15 14:15:00,
2013-02-15 16:20:00,49.6,43.4,29.90,NNE,22,2.0,2.0,79,0.00,,---,0.26,VWS V13.01,2013-02-15 14:20:00,
2013-02-15 16:25:00,49.6,43.7,29.90,NNW,337,3.6,3.6,80,0.00,,---,0.26,VWS V13.01,2013-02-15 14:25:00,
2013-02-15 16:30:00,49.6,43.7,29.91,ENE,67,2.2,2.2,80,0.00,,---,0.26,VWS V13.01,2013-02-15 14:30:00,
2013-02-15 16:35:00,49.6,43.7,29.91,NNE,22,2.5,3.4,80,0.00,,---,0.26,VWS V13.01,2013-02-15 14:35:00,
2013-02-15 16:40:00,49.6,43.7,29.91,North,0,0.0,5.4,80,0.00,,---,0.26,VWS V13.01,2013-02-15 14:40:00,
2013-02-15 16:45:00,49.6,43.7,29.91,North,0,0.0,2.2,80,0.00,,---,0.26,VWS V13.01,2013-02-15 14:45:00,
2013-02-15 16:50:00,49.6,43.7,29.91,NNW,337,0.0,4.0,80,0.00,,---,0.26,VWS V13.01,2013-02-15 14:50:00,
2013-02-15 16:55:00,49.6,43.7,29.92,NNE,22,1.3,2.5,80,0.00,,---,0.26,VWS V13.01,2013-02-15 14:55:00,
2013-02-15 17:00:00,49.6,43.7,29.92,NE,45,0.0,1.3,80,0.00,,---,0.26,VWS V13.01,2013-02-15 15:00:00,
2013-02-15 17:05:00,49.6,43.7,29.92,ESE,112,0.0,2.2,80,0.00,,---,0.26,VWS V13.01,2013-02-15 15:05:00,
2013-02-15 17:10:00,49.6,43.7,29.92,NW,315,1.1,1.1,80,0.00,,---,0.26,VWS V13.01,2013-02-15 15:10:00,
2013-02-15 17:15:00,49.6,43.7,29.92,East,90,0.0,4.3,80,0.00,,---,0.26,VWS V13.01,2013-02-15 15:15:00,
2013-02-15 17:20:00,49.6,43.7,29.92,ENE,67,0.0,5.1,80,0.00,,---,0.26,VWS V13.01,2013-02-15 15:20:00,
2013-02-15 17:25:00,49.6,43.7,29.93,NNW,337,0.0,2.5,80,0.00,,---,0.26,VWS V13.01,2013-02-15 15:25:00,
2013-02-15 17:30:00,49.6,43.7,29.93,ESE,112,0.0,2.2,80,0.00,,---,0.26,VWS V13.01,2013-02-15 15:30:00,
2013-02-15 17:35:00,49.6,43.7,29.92,ESE,112,0.0,2.2,80,0.00,,---,0.26,VWS V13.01,2013-02-15 15:35:00,
2013-02-15 17:40:00,49.6,43.7,29.93,West,270,0.0,2.2,80,0.00,,---,0.26,VWS V13.01,2013-02-15 15:40:00,
2013-02-15 17:45:00,49.6,43.7,29.93,NNE,22,0.0,2.2,80,0.00,,---,0.26,VWS V13.01,2013-02-15 15:45:00,
2013-02-15 17:50:00,49.6,43.7,29.93,ENE,67,0.0,1.1,80,0.00,,---,0.26,VWS V13.01,2013-02-15 15:50:00,
2013-02-15 17:55:00,49.5,43.6,29.93,ESE,112,0.0,1.1,80,0.00,,---,0.26,VWS V13.01,2013-02-15 15:55:00,
2013-02-15 18:00:00,49.5,43.6,29.94,ESE,112,0.0,1.1,80,0.00,,---,0.26,VWS V13.01,2013-02-15 16:00:00,
2013-02-15 18:05:00,49.5,43.6,29.94,ESE,112,0.0,1.1,80,0.00,,---,0.26,VWS V13.01,2013-02-15 16:05:00,
2013-02-15 18:10:00,49.3,43.4,29.94,ENE,67,0.0,1.1,80,0.00,,---,0.26,VWS V13.01,2013-02-15 16:10:00,
2013-02-15 18:15:00,49.3,43.4,29.94,East,90,0.0,1.1,80,0.00,,---,0.26,VWS V13.01,2013-02-15 16:15:00,
2013-02-15 18:20:00,49.3,43.4,29.94,East,90,0.0,1.1,80,0.00,,---,0.26,VWS V13.01,2013-02-15 16:20:00,
2013-02-15 18:25:00,49.3,43.4,29.94,East,90,0.0,1.1,80,0.00,,---,0.26,VWS V13.01,2013-02-15 16:25:00,
2013-02-15 18:30:00,49.3,43.4,29.94,ENE,67,0.0,1.3,80,0.00,,---,0.26,VWS V13.01,2013-02-15 16:30:00,
2013-02-15 18:35:00,49.1,43.2,29.95,ENE,67,0.0,1.3,80,0.00,,---,0.26,VWS V13.01,2013-02-15 16:35:00,
2013-02-15 18:40:00,49.1,43.2,29.94,NE,45,0.0,1.3,80,0.00,,---,0.26,VWS V13.01,2013-02-15 16:40:00,
2013-02-15 18:46:00,49.1,43.2,29.95,ESE,112,0.0,1.3,80,0.00,,---,0.26,VWS V13.01,2013-02-15 16:46:00,
2013-02-15 18:51:00,48.9,42.7,29.95,ENE,67,0.0,1.3,79,0.00,,---,0.26,VWS V13.01,2013-02-15 16:51:00,
2013-02-15 18:56:00,48.9,43.0,29.95,SE,135,0.0,1.3,80,0.00,,---,0.26,VWS V13.01,2013-02-15 16:56:00,
2013-02-15 19:01:00,48.9,43.0,29.95,SE,135,0.0,1.1,80,0.00,,---,0.26,VWS V13.01,2013-02-15 17:01:00,
2013-02-15 19:06:00,48.9,43.0,29.96,SE,135,0.0,1.1,80,0.00,,---,0.26,VWS V13.01,2013-02-15 17:06:00,
2013-02-15 19:11:00,48.9,43.0,29.96,SE,135,0.0,1.1,80,0.00,,---,0.26,VWS V13.01,2013-02-15 17:11:00,
2013-02-15 19:16:00,48.9,43.0,29.96,East,90,0.0,1.1,80,0.00,,---,0.26,VWS V13.01,2013-02-15 17:16:00,
2013-02-15 19:21:00,48.9,43.0,29.96,SE,135,1.1,1.1,80,0.00,,---,0.26,VWS V13.01,2013-02-15 17:21:00,
2013-02-15 19:26:00,48.9,43.0,29.96,ESE,112,0.0,1.1,80,0.00,,---,0.26,VWS V13.01,2013-02-15 17:26:00,
2013-02-15 19:31:00,48.7,42.8,29.96,East,90,0.0,1.1,80,0.00,,---,0.26,VWS V13.01,2013-02-15 17:31:00,
2013-02-15 19:36:00,48.7,42.8,29.96,ESE,112,0.7,2.2,80,0.00,,---,0.26,VWS V13.01,2013-02-15 17:36:00,
2013-02-15 19:41:00,48.7,43.1,29.96,East,90,0.0,2.2,81,0.00,,---,0.26,VWS V13.01,2013-02-15 17:41:00,
2013-02-15 19:46:00,48.7,43.1,29.96,East,90,0.0,2.2,81,0.00,,---,0.26,VWS V13.01,2013-02-15 17:46:00,
2013-02-15 19:51:00,48.7,43.1,29.96,ESE,112,0.0,1.1,81,0.00,,---,0.26,VWS V13.01,2013-02-15 17:51:00,
2013-02-15 19:56:00,48.7,43.1,29.96,East,90,0.0,1.3,81,0.00,,---,0.26,VWS V13.01,2013-02-15 17:56:00,
2013-02-15 20:01:00,48.7,43.1,29.96,ESE,112,0.0,1.1,81,0.00,,---,0.26,VWS V13.01,2013-02-15 18:01:00,
2013-02-15 20:06:00,48.7,43.1,29.96,ENE,67,2.0,2.0,81,0.00,,---,0.26,VWS V13.01,2013-02-15 18:06:00,
2013-02-15 20:11:00,48.7,43.1,29.96,ENE,67,0.0,1.3,81,0.00,,---,0.26,VWS V13.01,2013-02-15 18:11:00,
2013-02-15 20:16:00,48.7,43.1,29.96,ENE,67,0.0,1.3,81,0.00,,---,0.26,VWS V13.01,2013-02-15 18:16:00,
2013-02-15 20:21:00,48.7,43.1,29.96,ENE,67,0.0,1.3,81,0.00,,---,0.26,VWS V13.01,2013-02-15 18:21:00,
2013-02-15 20:26:00,48.7,43.1,29.96,ENE,67,0.0,1.1,81,0.00,,---,0.26,VWS V13.01,2013-02-15 18:26:00,
2013-02-15 20:31:00,48.7,43.1,29.96,ESE,112,0.0,1.1,81,0.00,,---,0.26,VWS V13.01,2013-02-15 18:31:00,
2013-02-15 20:36:00,48.7,43.1,29.97,ENE,67,0.0,1.1,81,0.00,,---,0.26,VWS V13.01,2013-02-15 18:36:00,
2013-02-15 20:41:00,48.7,43.1,29.97,East,90,0.0,2.2,81,0.00,,---,0.26,VWS V13.01,2013-02-15 18:41:00,
2013-02-15 20:46:00,48.7,43.1,29.96,SE,135,0.0,2.2,81,0.00,,---,0.26,VWS V13.01,2013-02-15 18:46:00,
2013-02-15 20:52:00,48.7,43.1,29.97,NE,45,0.0,0.9,81,0.00,,---,0.26,VWS V13.01,2013-02-15 18:52:00,
2013-02-15 20:57:00,48.7,43.1,29.98,East,90,0.0,0.9,81,0.00,,---,0.26,VWS V13.01,2013-02-15 18:57:00,
2013-02-15 21:02:00,48.7,43.1,29.97,East,90,0.0,0.9,81,0.00,,---,0.26,VWS V13.01,2013-02-15 19:02:00,
2013-02-15 21:07:00,48.7,43.1,29.98,ENE,67,0.0,0.9,81,0.00,,---,0.26,VWS V13.01,2013-02-15 19:07:00,
2013-02-15 21:12:00,48.7,43.1,29.98,NE,45,0.0,0.9,81,0.00,,---,0.26,VWS V13.01,2013-02-15 19:12:00,
2013-02-15 21:17:00,48.7,43.1,29.98,NNW,337,0.0,0.9,81,0.00,,---,0.26,VWS V13.01,2013-02-15 19:17:00,
2013-02-15 21:22:00,48.7,43.1,29.98,East,90,0.0,0.9,81,0.00,,---,0.26,VWS V13.01,2013-02-15 19:22:00,
2013-02-15 21:27:00,48.6,43.0,29.98,North,0,2.2,3.6,81,0.00,,---,0.26,VWS V13.01,2013-02-15 19:27:00,
2013-02-15 21:32:00,48.6,43.0,29.98,ENE,67,0.0,1.3,81,0.00,,---,0.26,VWS V13.01,2013-02-15 19:32:00,
2013-02-15 21:37:00,48.6,43.0,29.98,North,0,0.0,1.3,81,0.00,,---,0.26,VWS V13.01,2013-02-15 19:37:00,
2013-02-15 21:42:00,48.6,43.0,29.98,North,0,0.7,0.7,81,0.00,,---,0.26,VWS V13.01,2013-02-15 19:42:00,
2013-02-15 21:47:00,48.6,43.0,29.99,North,0,0.0,2.5,81,0.00,,---,0.26,VWS V13.01,2013-02-15 19:47:00,
2013-02-15 21:52:00,48.4,42.8,29.99,NNE,22,2.5,2.5,81,0.00,,---,0.26,VWS V13.01,2013-02-15 19:52:00,
2013-02-15 21:57:00,48.4,42.8,29.98,East,90,0.0,2.5,81,0.00,,---,0.26,VWS V13.01,2013-02-15 19:57:00,
2013-02-15 22:02:00,48.4,42.8,29.98,East,90,0.0,2.5,81,0.00,,---,0.26,VWS V13.01,2013-02-15 20:02:00,
2013-02-15 22:07:00,48.4,42.8,29.98,North,0,0.0,1.1,81,0.00,,---,0.26,VWS V13.01,2013-02-15 20:07:00,
2013-02-15 22:12:00,48.2,42.7,29.98,North,0,0.0,1.1,81,0.00,,---,0.26,VWS V13.01,2013-02-15 20:12:00,
2013-02-15 22:17:00,48.0,42.5,29.98,NE,45,0.0,1.1,81,0.00,,---,0.26,VWS V13.01,2013-02-15 20:17:00,
2013-02-15 22:22:00,48.0,42.5,29.98,North,0,0.0,1.1,81,0.00,,---,0.26,VWS V13.01,2013-02-15 20:22:00,
2013-02-15 22:27:00,47.8,42.3,29.99,NNW,337,0.0,2.2,81,0.00,,---,0.26,VWS V13.01,2013-02-15 20:27:00,
2013-02-15 22:32:00,47.8,42.3,29.99,NW,315,0.0,2.2,81,0.00,,---,0.26,VWS V13.01,2013-02-15 20:32:00,
2013-02-15 22:37:00,47.7,42.2,29.99,NW,315,0.0,1.8,81,0.00,,---,0.26,VWS V13.01,2013-02-15 20:37:00,
2013-02-15 22:42:00,47.5,42.0,29.99,North,0,0.0,1.6,81,0.00,,---,0.26,VWS V13.01,2013-02-15 20:42:00,
2013-02-15 22:47:00,47.3,41.8,29.99,NNW,337,2.2,2.5,81,0.00,,---,0.26,VWS V13.01,2013-02-15 20:47:00,
2013-02-15 22:52:00,47.3,42.1,29.99,NNW,337,0.0,1.6,82,0.00,,---,0.26,VWS V13.01,2013-02-15 20:52:00,
2013-02-15 22:57:00,47.1,41.9,30.00,NNW,337,2.2,2.5,82,0.00,,---,0.26,VWS V13.01,2013-02-15 20:57:00,
2013-02-15 23:02:00,47.1,41.9,29.99,NW,315,2.2,2.2,82,0.00,,---,0.26,VWS V13.01,2013-02-15 21:02:00,
2013-02-15 23:07:00,46.9,41.7,30.00,NNW,337,0.0,4.3,82,0.00,,---,0.26,VWS V13.01,2013-02-15 21:07:00,
2013-02-15 23:12:00,46.9,41.7,30.00,NNW,337,0.9,2.2,82,0.00,,---,0.26,VWS V13.01,2013-02-15 21:12:00,
2013-02-15 23:17:00,46.8,41.6,29.99,NNW,337,2.2,2.2,82,0.00,,---,0.26,VWS V13.01,2013-02-15 21:17:00,
2013-02-15 23:23:00,46.6,41.4,29.99,NNW,337,2.5,2.5,82,0.00,,---,0.26,VWS V13.01,2013-02-15 21:23:00,
2013-02-15 23:28:00,46.4,41.2,30.00,NNW,337,1.6,3.4,82,0.00,,---,0.26,VWS V13.01,2013-02-15 21:28:00,
2013-02-15 23:33:00,46.2,41.0,29.99,NW,315,0.0,5.6,82,0.00,,---,0.26,VWS V13.01,2013-02-15 21:33:00,
2013-02-15 23:38:00,46.2,41.3,29.99,NNW,337,1.3,1.3,83,0.00,,---,0.26,VWS V13.01,2013-02-15 21:38:00,
2013-02-15 23:43:00,46.0,41.1,30.00,NNE,22,0.0,2.9,83,0.00,,---,0.26,VWS V13.01,2013-02-15 21:43:00,
2013-02-15 23:48:00,45.7,40.8,30.00,North,0,0.0,4.9,83,0.00,,---,0.26,VWS V13.01,2013-02-15 21:48:00,
2013-02-15 23:53:00,45.7,40.8,30.00,North,0,3.1,3.4,83,0.00,,---,0.26,VWS V13.01,2013-02-15 21:53:00,
2013-02-15 23:58:00,45.5,40.7,30.00,NE,45,0.0,3.1,83,0.00,,---,0.26,VWS V13.01,2013-02-15 21:58:00,